WB0VGI-1 Weather Reports


time (UTC)temp
F
wind
direction
speed
knots
gust
knots
rain 1hr
in
rain 24hr
in
rain mn
in
humidity
%
barometer
mb
20260502232705 64 216 7.8 7.8 0.00 0.00 0.00 40 1013.1
20260502230705 64 241 8.7 8.7 0.00 0.00 0.00 39 1013.3
20260502224705 64 206 4.3 4.3 0.00 0.00 0.00 41 1013.6
20260502222705 64 191 4.3 4.3 0.00 0.00 0.00 40 1013.6
20260502220705 64 205 7.8 7.8 0.00 0.00 0.00 39 1013.8
20260502214705 63 205 6.1 6.1 0.00 0.00 0.00 40 1014.1
20260502212705 63 188 6.1 6.1 0.00 0.00 0.00 39 1014.5
20260502210705 64 232 6.1 6.1 0.00 0.00 0.00 38 1014.8
20260502204705 64 207 6.1 6.1 0.00 0.00 0.00 37 1015.1
20260502202705 64 196 9.6 9.6 0.00 0.00 0.00 37 1015.6
20260502200705 63 201 6.1 6.1 0.00 0.00 0.00 36 1016.1
20260502194705 62 180 8.7 8.7 0.00 0.00 0.00 38 1016.5
20260502192705 62 204 8.7 8.7 0.00 0.00 0.00 38 1016.9
20260502190705 63 226 7.8 7.8 0.00 0.00 0.00 36 1017.2
20260502184705 61 176 7.0 7.0 0.00 0.00 0.00 38 1017.6
20260502182705 61 224 7.0 7.0 0.00 0.00 0.00 37 1018.0
20260502180705 60 223 5.2 5.2 0.00 0.00 0.00 37 1018.4
20260502162706 54 202 6.1 6.1 0.00 0.00 0.00 40 1020.5
20260502160706 54 203 5.2 5.2 0.00 0.00 0.00 41 1020.8
20260502150706 52 217 4.3 4.3 0.00 0.00 0.00 46 1021.4
20260502130706 42 245 3.5 3.5 0.00 0.00 0.00 65 1022.7
20260502122706 37 238 2.6 2.6 0.00 0.00 0.00 74 1022.9
20260502120706 37 222 1.7 1.7 0.00 0.00 0.00 72 1023.0
20260502114706 37 219 2.6 2.6 0.00 0.00 0.00 64 1022.9
20260502112706 38 248 2.6 2.6 0.00 0.00 0.00 59 1022.8
20260502110706 38 243 0.0 0.0 0.00 0.00 0.00 59 1022.7
20260502104705 39 248 1.7 1.7 0.00 0.00 0.00 57 1022.7
20260502102706 39 240 2.6 2.6 0.00 0.00 0.00 57 1022.7
20260502100705 39 245 3.5 3.5 0.00 0.00 0.00 56 1022.6
20260502090705 39 244 2.6 2.6 0.00 0.00 0.00 58 1022.5
20260502090506 39 244 2.6 2.6 0.00 0.00 0.00 58 1022.5
20260502070705 41 245 3.5 3.5 0.00 0.00 0.00 59 1022.8
20260502064705 41 244 3.5 3.5 0.00 0.00 0.00 61 1023.0
20260502062705 41 238 2.6 2.6 0.00 0.00 0.00 59 1022.9
20260502060705 41 234 2.6 2.6 0.00 0.00 0.00 58 1022.9
20260502054705 42 241 2.6 2.6 0.00 0.00 0.00 58 1022.9
20260502052705 42 234 2.6 2.6 0.00 0.00 0.00 58 1022.9
20260502050705 43 212 3.5 3.5 0.00 0.00 0.00 54 1022.7
20260502044705 43 232 2.6 2.6 0.00 0.00 0.00 50 1022.6
20260502042705 43 228 2.6 2.6 0.00 0.00 0.00 49 1022.7
20260502040705 44 217 2.6 2.6 0.00 0.00 0.00 47 1022.6
20260502034705 45 228 2.6 2.6 0.00 0.00 0.00 46 1022.7
20260502032705 45 231 2.6 2.6 0.00 0.00 0.00 45 1022.7
20260502030705 46 231 1.7 1.7 0.00 0.00 0.00 44 1022.6
20260502024705 47 229 2.6 2.6 0.00 0.00 0.00 43 1022.5
20260502022705 48 235 1.7 1.7 0.00 0.00 0.00 42 1022.3
20260502020705 49 239 0.9 0.9 0.00 0.00 0.00 43 1022.1
20260502014705 51 231 0.9 0.9 0.00 0.00 0.00 39 1021.7
20260502012705 53 0.0 0.0 0.00 0.00 0.00 38 1021.4
20260502010705 53 0.0 0.0 0.00 0.00 0.00 37 1021.3
20260502004705 54 300 1.7 1.7 0.00 0.00 0.00 37 1021.3
20260502002705 52 338 0.0 0.0 0.00 0.00 0.00 39 1021.5
20260502000705 52 356 2.6 2.6 0.00 0.00 0.00 36 1021.4
20260501234705 53 358 2.6 2.6 0.00 0.00 0.00 39 1021.4